Springfield, MO

8:45 PM CDT on May 22, 2018 (GMT -0500)
Springfield-Branson Regional

Weather History for KSGF - May, 2013

Change the Weather History Date:

Saturday, May 18, 2013

  Actual Average Record
Temperature  
Mean Temperature 74 °F 65 °F  
Max Temperature 83 °F 76 °F 88 °F (1962)
Min Temperature 64 °F 55 °F 37 °F (2002)
Degree Days  
Heating Degree Days 0 3  
Month to date heating degree days 136 73  
Since 1 July heating degree days 4488 4547  
Cooling Degree Days 9 3  
Month to date cooling degree days 35 36  
Year to date cooling degree days 52 61  
Growing Degree Days 23 (Base 50)    
Moisture  
Dew Point 68 °F    
Average Humidity 79    
Maximum Humidity 93    
Minimum Humidity 65    
Precipitation  
Precipitation 0.00 in 0.16 in 2.13 in (1943)
Month to date precipitation 2.17 3.13  
Year to date precipitation 17.92 16.06  
Snow  
Snow 0.00 in - - ()
Month to date snowfall 1.4  
Since 1 July snowfall 12.7  
Snow Depth 0.00 in    
Sea Level Pressure  
Sea Level Pressure 29.88 in    
Wind  
Wind Speed 14 mph (SE)    
Max Wind Speed 22 mph    
Max Gust Speed 26 mph    
Visibility 9 miles    
Events      
T = Trace of Precipitation, MM = Missing Value Source: NWS Daily Summary

Daily Weather History Graph

Daily Weather History Graph

Search for Another Location

Airport or City:

Astronomy

May. 18, 2013 Rise Set
Actual Time 6:02 AM CDT 8:18 PM CDT
Civil Twilight 5:33 AM CDT 8:47 PM CDT
Nautical Twilight 4:56 AM CDT 9:23 PM CDT
Astronomical Twilight 4:17 AM CDT 10:03 PM CDT
Moon 1:30 PM CDT (5/18) 1:45 AM CDT (5/18)
Length of Visible Light 15h 14m
Length of Day
14h 15m
First Quarter, 55% of the Moon is Illuminated
May 18
First Quarter
May 24
Full
May 31
Last Quarter
Jun 8
New
Jun 16
First Quarter

Hourly Weather History & Observations

Time (CDT) Temp. Heat Index Dew Point Humidity Pressure Visibility Wind Dir Wind Speed Gust Speed Precip Events Conditions
12:52 AM 66.0 °F - 61.0 °F 84% 29.93 in 10.0 mi SE 6.9 mph - N/A   Mostly Cloudy
1:52 AM 64.9 °F - 61.0 °F 87% 29.91 in 10.0 mi SSE 8.1 mph - N/A   Scattered Clouds
2:52 AM 66.0 °F - 63.0 °F 90% 29.90 in 10.0 mi SE 8.1 mph - N/A   Mostly Cloudy
3:52 AM 64.9 °F - 62.1 °F 90% 29.89 in 10.0 mi SE 9.2 mph - N/A   Clear
4:52 AM 64.0 °F - 62.1 °F 93% 29.90 in 10.0 mi SSE 8.1 mph - N/A   Clear
5:52 AM 64.9 °F - 63.0 °F 93% 29.91 in 10.0 mi SE 8.1 mph - N/A   Overcast
6:52 AM 66.0 °F - 64.0 °F 93% 29.92 in 10.0 mi SE 9.2 mph - N/A   Overcast
7:52 AM 69.1 °F - 64.9 °F 87% 29.93 in 10.0 mi SSE 9.2 mph - N/A   Scattered Clouds
8:52 AM 71.1 °F - 66.0 °F 84% 29.93 in 10.0 mi SSE 16.1 mph - N/A   Scattered Clouds
9:48 AM 73.4 °F - 68.0 °F 83% 29.95 in 10.0 mi SE 15.0 mph - N/A   Scattered Clouds
9:52 AM 73.9 °F - 68.0 °F 82% 29.92 in 10.0 mi SSE 16.1 mph - N/A   Mostly Cloudy
10:05 AM 73.0 °F - 66.9 °F 81% 29.94 in 9.0 mi SSE 16.1 mph - N/A   Mostly Cloudy
10:52 AM 73.9 °F - 68.0 °F 82% 29.92 in 10.0 mi SE 17.3 mph - N/A   Overcast
11:52 AM 77.0 °F - 69.1 °F 76% 29.92 in 10.0 mi SE 17.3 mph - N/A   Mostly Cloudy
12:50 PM 80.6 °F 83.9 °F 69.8 °F 70% 29.92 in 10.0 mi SE 11.5 mph - N/A   Scattered Clouds
12:52 PM 80.1 °F 82.9 °F 69.1 °F 69% 29.88 in 10.0 mi SE 11.5 mph - N/A   Scattered Clouds
1:00 PM 81.0 °F 84.4 °F 70.0 °F 69% 29.91 in 10.0 mi SE 16.1 mph - N/A   Mostly Cloudy
1:08 PM 81.0 °F 84.4 °F 70.0 °F 69% 29.90 in 10.0 mi SSE 13.8 mph - N/A   Scattered Clouds
1:52 PM 82.0 °F 85.9 °F 70.0 °F 67% 29.86 in 10.0 mi ESE 12.7 mph 21.9 mph N/A   Mostly Cloudy
2:52 PM 81.0 °F 84.4 °F 70.0 °F 69% 29.86 in 10.0 mi SE 13.8 mph - N/A   Overcast
3:52 PM 81.0 °F 84.4 °F 70.0 °F 69% 29.85 in 9.0 mi SE 15.0 mph - N/A   Overcast
4:52 PM 81.0 °F 84.9 °F 71.1 °F 72% 29.84 in 9.0 mi SE 15.0 mph - N/A   Mostly Cloudy
5:52 PM 81.0 °F 84.9 °F 71.1 °F 72% 29.83 in 9.0 mi SE 15.0 mph - N/A   Mostly Cloudy
6:11 PM 81.0 °F 84.9 °F 71.1 °F 72% 29.86 in 9.0 mi SE 15.0 mph - N/A   Mostly Cloudy
6:52 PM 79.0 °F - 71.1 °F 77% 29.82 in 8.0 mi SSE 18.4 mph - N/A   Overcast
7:04 PM 79.0 °F - 70.0 °F 74% 29.85 in 8.0 mi SSE 13.8 mph - N/A   Mostly Cloudy
7:52 PM 78.1 °F - 69.1 °F 74% 29.82 in 7.0 mi SSE 16.1 mph - N/A   Clear
8:52 PM 75.0 °F - 69.1 °F 82% 29.79 in 8.0 mi SSE 15.0 mph 23.0 mph N/A   Clear
9:52 PM 73.9 °F - 70.0 °F 87% 29.80 in 7.0 mi SSE 18.4 mph 25.3 mph N/A   Clear
10:52 PM 73.0 °F - 70.0 °F 90% 29.82 in 5.0 mi SSE 15.0 mph - N/A   Clear
11:43 PM 73.0 °F - 70.0 °F 90% 29.85 in 5.0 mi SSE 16.1 mph - N/A   Partly Cloudy
11:52 PM 73.0 °F - 70.0 °F 90% 29.81 in 5.0 mi SSE 17.3 mph - N/A   Partly Cloudy